ハウエル彗星

88P/Howell (2004)

English version
Home page
Updated on January 2, 2011

---------------------------------------------------------------------

・ プロフィール

・ 写真集

・ 軌道要素

Epoch 2004 Apr. 25.0 TT = JDT 2453120.5
T 2004 Apr. 12.5677 TT                                  Nakano
q   1.367516             (2000.0)            P               Q
n   0.1791727      Peri.  235.8395      +0.3833213      +0.9213975
a   3.116172       Node    56.8257      -0.8202586      +0.3714418
e   0.561155       Incl.    4.3828      -0.4245475      +0.1142699
P   5.50
From 272 observations 1987-1999, mean residual 0".8.  Nongravitational
     parameters A1 = +0.36, A2 = -0.0491.

・ 星図

・ 光度変化

        m1 =  5.5 + 5 logΔ + 25   log r(t - 33)  [   ,310]  (              〜2005年 2月16日)
        m1 = 12.0 + 5 logΔ + 10.0 log r          [310,   ]  (2005年 2月16日〜              )

---------------------------------------------------------------------

軌道要素はMPCのEphemerides and Orbital Elementsに掲載されたものです。
星図は StellaNavigator Ver.2.0 for Windows (アストロアーツ 編著 / アスキー出版局刊) で作成したものです。
光度グラフはComet for Windowsで作成したものです。

---------------------------------------------------------------------

Copyright(C) Seiichi Yoshida (comet@aerith.net). All rights reserved.